Time,TemperatureF,DewpointF,PressureIn,WindDirection,WindDirectionDegrees,WindSpeedMPH,WindSpeedGustMPH,Humidity,HourlyPrecipIn,Conditions,Clouds,dailyrainin,SoftwareType,DateUTC
2013-07-29 09:35:00,70.0,61.0,30.13,SE,137,3.0,-999.0,72,-99.99,,,-99.99,,2013-07-29 14:35:00,
2013-07-29 09:45:00,71.0,62.0,30.13,SE,124,2.0,-999.0,72,-99.99,,,-99.99,,2013-07-29 14:45:00,
2013-07-29 09:55:00,71.0,62.0,30.13,ESE,115,0.0,-999.0,72,-99.99,,,-99.99,,2013-07-29 14:55:00,
2013-07-29 10:07:00,71.0,61.0,30.13,ESE,122,0.0,-999.0,70,-99.99,,,-99.99,,2013-07-29 15:07:00,
2013-07-29 10:14:00,71.0,60.0,30.14,SE,138,3.0,-999.0,68,-99.99,,,-99.99,,2013-07-29 15:14:00,
2013-07-29 10:24:00,72.0,61.0,30.13,SE,124,3.0,-999.0,68,-99.99,,,-99.99,,2013-07-29 15:24:00,
2013-07-29 10:37:00,72.0,61.0,30.14,ESE,113,2.0,-999.0,68,-99.99,,,-99.99,,2013-07-29 15:37:00,
2013-07-29 10:45:00,73.0,61.0,30.14,East,99,2.0,-999.0,65,-99.99,,,-99.99,,2013-07-29 15:45:00,
2013-07-29 10:54:00,73.0,60.0,30.14,SE,137,3.0,-999.0,64,-99.99,,,-99.99,,2013-07-29 15:54:00,
2013-07-29 11:06:00,73.0,60.0,30.14,ESE,117,3.0,-999.0,64,-99.99,,,-99.99,,2013-07-29 16:06:00,
2013-07-29 11:13:00,73.0,60.0,30.14,SE,130,2.0,-999.0,63,-99.99,,,-99.99,,2013-07-29 16:13:00,
2013-07-29 11:24:00,73.0,59.0,30.14,SE,132,2.0,-999.0,62,-99.99,,,-99.99,,2013-07-29 16:24:00,
2013-07-29 11:38:00,74.0,60.0,30.14,SE,142,4.0,-999.0,62,-99.99,,,-99.99,,2013-07-29 16:38:00,
2013-07-29 11:45:00,75.0,61.0,30.14,ESE,113,5.0,-999.0,61,-99.99,,,-99.99,,2013-07-29 16:45:00,
2013-07-29 12:07:00,75.0,60.0,30.14,SE,138,3.0,-999.0,60,-99.99,,,-99.99,,2013-07-29 17:07:00,
2013-07-29 12:13:00,76.0,60.0,30.14,SE,136,4.0,-999.0,57,-99.99,,,-99.99,,2013-07-29 17:13:00,
2013-07-29 12:24:00,77.0,61.0,30.14,ESE,118,2.0,-999.0,58,-99.99,,,-99.99,,2013-07-29 17:24:00,
2013-07-29 12:44:00,77.0,61.0,30.14,ESE,105,2.0,-999.0,57,-99.99,,,-99.99,,2013-07-29 17:44:00,
2013-07-29 12:56:00,77.0,61.0,30.14,ESE,105,2.0,-999.0,57,-99.99,,,-99.99,,2013-07-29 17:56:00,
2013-07-29 13:06:00,76.0,59.0,30.14,ESE,105,1.0,-999.0,55,-99.99,,,-99.99,,2013-07-29 18:06:00,
2013-07-29 13:14:00,76.0,59.0,30.14,ESE,115,1.0,-999.0,56,-99.99,,,-99.99,,2013-07-29 18:14:00,
2013-07-29 13:27:00,76.0,60.0,30.13,East,98,0.0,-999.0,57,-99.99,,,-99.99,,2013-07-29 18:27:00,
2013-07-29 13:35:00,77.0,60.0,30.14,ESE,109,1.0,-999.0,56,-99.99,,,-99.99,,2013-07-29 18:35:00,
2013-07-29 13:45:00,77.0,61.0,30.13,ESE,102,1.0,-999.0,57,-99.99,,,-99.99,,2013-07-29 18:45:00,
2013-07-29 13:55:00,77.0,61.0,30.13,East,92,3.0,-999.0,57,-99.99,,,-99.99,,2013-07-29 18:55:00,
2013-07-29 14:03:00,78.0,61.0,30.12,SE,137,3.0,-999.0,56,-99.99,,,-99.99,,2013-07-29 19:03:00,
2013-07-29 14:25:00,78.0,61.0,30.12,East,96,3.0,-999.0,56,-99.99,,,-99.99,,2013-07-29 19:25:00,
2013-07-29 14:36:00,78.0,61.0,30.12,SSE,151,1.0,-999.0,55,-99.99,,,-99.99,,2013-07-29 19:36:00,
2013-07-29 14:45:00,79.0,61.0,30.12,East,99,1.0,-999.0,54,-99.99,,,-99.99,,2013-07-29 19:45:00,
2013-07-29 15:15:00,79.0,61.0,30.10,ENE,76,3.0,-999.0,55,-99.99,,,-99.99,,2013-07-29 20:15:00,
2013-07-29 15:24:00,79.0,62.0,30.10,ESE,103,2.0,-999.0,56,-99.99,,,-99.99,,2013-07-29 20:24:00,
2013-07-29 15:35:00,78.0,61.0,30.10,SE,126,3.0,-999.0,56,-99.99,,,-99.99,,2013-07-29 20:35:00,
2013-07-29 15:47:00,78.0,61.0,30.10,ESE,102,1.0,-999.0,56,-99.99,,,-99.99,,2013-07-29 20:47:00,
2013-07-29 15:56:00,78.0,62.0,30.10,ESE,107,2.0,-999.0,57,-99.99,,,-99.99,,2013-07-29 20:56:00,
2013-07-29 16:04:00,78.0,61.0,30.10,SE,138,2.0,-999.0,56,-99.99,,,-99.99,,2013-07-29 21:04:00,
2013-07-29 16:17:00,79.0,61.0,30.09,ESE,118,1.0,-999.0,54,-99.99,,,-99.99,,2013-07-29 21:17:00,
2013-07-29 16:24:00,79.0,62.0,30.10,East,79,1.0,-999.0,57,-99.99,,,-99.99,,2013-07-29 21:24:00,
2013-07-29 16:35:00,79.0,63.0,30.11,NE,36,0.0,-999.0,58,-99.99,,,-99.99,,2013-07-29 21:35:00,
2013-07-29 16:47:00,79.0,62.0,30.11,ENE,64,1.0,-999.0,57,-99.99,,,-99.99,,2013-07-29 21:47:00,
2013-07-29 16:56:00,78.0,62.0,30.10,ESE,103,3.0,-999.0,57,-99.99,,,-99.99,,2013-07-29 21:56:00,
2013-07-29 17:04:00,78.0,62.0,30.09,East,98,2.0,-999.0,58,-99.99,,,-99.99,,2013-07-29 22:04:00,
2013-07-29 17:16:00,78.0,62.0,30.10,East,101,2.0,-999.0,59,-99.99,,,-99.99,,2013-07-29 22:16:00,
2013-07-29 17:25:00,78.0,63.0,30.09,ENE,64,4.0,-999.0,60,-99.99,,,-99.99,,2013-07-29 22:25:00,
2013-07-29 17:37:00,78.0,63.0,30.09,East,92,4.0,-999.0,60,-99.99,,,-99.99,,2013-07-29 22:37:00,
2013-07-29 17:44:00,78.0,63.0,30.09,East,98,4.0,-999.0,61,-99.99,,,-99.99,,2013-07-29 22:44:00,
2013-07-29 17:55:00,78.0,64.0,30.09,East,86,3.0,-999.0,62,-99.99,,,-99.99,,2013-07-29 22:55:00,
2013-07-29 18:05:00,78.0,64.0,30.09,East,83,5.0,-999.0,62,-99.99,,,-99.99,,2013-07-29 23:05:00,
2013-07-29 18:14:00,77.0,63.0,30.09,ENE,76,4.0,-999.0,63,-99.99,,,-99.99,,2013-07-29 23:14:00,
2013-07-29 18:26:00,77.0,64.0,30.10,ENE,61,1.0,-999.0,65,-99.99,,,-99.99,,2013-07-29 23:26:00,
2013-07-29 18:44:00,77.0,64.0,30.10,ENE,71,2.0,-999.0,65,-99.99,,,-99.99,,2013-07-29 23:44:00,
2013-07-29 19:25:00,76.0,65.0,30.10,ENE,74,1.0,-999.0,68,-99.99,,,-99.99,,2013-07-30 00:25:00,
2013-07-29 19:34:00,76.0,65.0,30.10,ENE,59,2.0,-999.0,68,-99.99,,,-99.99,,2013-07-30 00:34:00,
2013-07-29 19:54:00,75.0,65.0,30.10,ENE,71,2.0,-999.0,70,-99.99,,,-99.99,,2013-07-30 00:54:00,
2013-07-29 20:05:00,74.0,64.0,30.09,ENE,66,4.0,-999.0,70,-99.99,,,-99.99,,2013-07-30 01:05:00,